Year,Month,Day,Hour,Minute,Value (Times are PST for temperature in C)
2017,05,28,00,00,15.00
2017,05,28,00,01,15.00
2017,05,28,00,02,15.00
2017,05,28,00,03,15.00
2017,05,28,00,04,15.00
2017,05,28,00,05,15.00
2017,05,28,00,06,15.00
2017,05,28,00,07,15.00
2017,05,28,00,08,15.00
2017,05,28,00,09,15.00
2017,05,28,00,10,15.00
2017,05,28,00,11,15.00
2017,05,28,00,12,15.00
2017,05,28,00,13,15.00
2017,05,28,00,14,14.90
2017,05,28,00,15,14.90
2017,05,28,00,16,14.90
2017,05,28,00,17,14.80
2017,05,28,00,18,14.80
2017,05,28,00,19,14.80
2017,05,28,00,20,14.80
2017,05,28,00,21,14.70
2017,05,28,00,22,14.70
2017,05,28,00,23,14.70
2017,05,28,00,24,14.70
2017,05,28,00,25,14.70
2017,05,28,00,26,14.70
2017,05,28,00,27,14.70
2017,05,28,00,28,14.70
2017,05,28,00,29,14.60
2017,05,28,00,30,14.60
2017,05,28,00,31,14.60
2017,05,28,00,32,14.60
2017,05,28,00,33,14.60
2017,05,28,00,34,14.60
2017,05,28,00,35,14.60
2017,05,28,00,36,14.60
2017,05,28,00,37,14.60
2017,05,28,00,38,14.60
2017,05,28,00,39,14.60
2017,05,28,00,40,14.60
2017,05,28,00,41,14.60
2017,05,28,00,42,14.60
2017,05,28,00,43,14.60
2017,05,28,00,44,14.60
2017,05,28,00,45,14.60
2017,05,28,00,46,14.60
2017,05,28,00,47,14.60
2017,05,28,00,48,14.60
2017,05,28,00,49,14.60
2017,05,28,00,50,14.60
2017,05,28,00,51,14.60
2017,05,28,00,52,14.50
2017,05,28,00,53,14.50
2017,05,28,00,54,14.40
2017,05,28,00,55,14.40
2017,05,28,00,56,14.40
2017,05,28,00,57,14.40
2017,05,28,00,58,14.40
2017,05,28,00,59,14.30
2017,05,28,01,00,14.30
2017,05,28,01,01,14.30
2017,05,28,01,02,14.30
2017,05,28,01,03,14.30
2017,05,28,01,04,14.30
2017,05,28,01,05,14.30
2017,05,28,01,06,14.30
2017,05,28,01,07,14.30
2017,05,28,01,08,14.30
2017,05,28,01,09,14.30
2017,05,28,01,10,14.30
2017,05,28,01,11,14.30
2017,05,28,01,12,14.30
2017,05,28,01,13,14.20
2017,05,28,01,14,14.20
2017,05,28,01,15,14.20
2017,05,28,01,16,14.20
2017,05,28,01,17,14.20
2017,05,28,01,18,14.20
2017,05,28,01,19,14.20
2017,05,28,01,20,14.20
2017,05,28,01,21,14.20
2017,05,28,01,22,14.20
2017,05,28,01,23,14.20
2017,05,28,01,24,14.20
2017,05,28,01,25,14.20
2017,05,28,01,26,14.20
2017,05,28,01,27,14.20
2017,05,28,01,28,14.20
2017,05,28,01,29,14.20
2017,05,28,01,30,14.20
2017,05,28,01,31,14.20
2017,05,28,01,32,14.20
2017,05,28,01,33,14.20
2017,05,28,01,34,14.10
2017,05,28,01,35,14.10
2017,05,28,01,36,14.10
2017,05,28,01,37,14.10
2017,05,28,01,38,14.10
2017,05,28,01,39,14.10
2017,05,28,01,40,14.10
2017,05,28,01,41,14.10
2017,05,28,01,42,14.20
2017,05,28,01,43,14.20
2017,05,28,01,44,14.20
2017,05,28,01,45,14.20
2017,05,28,01,46,14.20
2017,05,28,01,47,14.20
2017,05,28,01,48,14.10
2017,05,28,01,49,14.10
2017,05,28,01,50,14.00
2017,05,28,01,51,14.00
2017,05,28,01,52,13.90
2017,05,28,01,53,13.90
2017,05,28,01,54,14.00
2017,05,28,01,55,14.00
2017,05,28,01,56,14.10
2017,05,28,01,57,14.20
2017,05,28,01,58,14.20
2017,05,28,01,59,14.20
2017,05,28,02,00,14.30
2017,05,28,02,01,14.30
2017,05,28,02,02,14.20
2017,05,28,02,03,14.20
2017,05,28,02,04,14.20
2017,05,28,02,05,14.10
2017,05,28,02,06,14.10
2017,05,28,02,07,14.00
2017,05,28,02,08,14.00
2017,05,28,02,09,14.00
2017,05,28,02,10,13.90
2017,05,28,02,11,13.90
2017,05,28,02,12,13.90
2017,05,28,02,13,13.80
2017,05,28,02,14,13.80
2017,05,28,02,15,13.70
2017,05,28,02,16,13.70
2017,05,28,02,17,13.70
2017,05,28,02,18,13.70
2017,05,28,02,19,13.60
2017,05,28,02,20,13.60
2017,05,28,02,21,13.60
2017,05,28,02,22,13.60
2017,05,28,02,23,13.70
2017,05,28,02,24,13.60
2017,05,28,02,25,13.60
2017,05,28,02,26,13.60
2017,05,28,02,27,13.60
2017,05,28,02,28,13.60
2017,05,28,02,29,13.60
2017,05,28,02,30,13.60
2017,05,28,02,31,13.60
2017,05,28,02,32,13.60
2017,05,28,02,33,13.60
2017,05,28,02,34,13.60
2017,05,28,02,35,13.60
2017,05,28,02,36,13.60
2017,05,28,02,37,13.60
2017,05,28,02,38,13.60
2017,05,28,02,39,13.50
2017,05,28,02,40,13.50
2017,05,28,02,41,13.50
2017,05,28,02,42,13.50
2017,05,28,02,43,13.50
2017,05,28,02,44,13.40
2017,05,28,02,45,13.40
2017,05,28,02,46,13.40
2017,05,28,02,47,13.40
2017,05,28,02,48,13.40
2017,05,28,02,49,13.30
2017,05,28,02,50,13.30
2017,05,28,02,51,13.30
2017,05,28,02,52,13.30
2017,05,28,02,53,13.30
2017,05,28,02,54,13.30
2017,05,28,02,55,13.30
2017,05,28,02,56,13.30
2017,05,28,02,57,13.30
2017,05,28,02,58,13.30
2017,05,28,02,59,13.30
2017,05,28,03,00,13.30
2017,05,28,03,01,13.30
2017,05,28,03,02,13.30
2017,05,28,03,03,13.30
2017,05,28,03,04,13.30
2017,05,28,03,05,13.30
2017,05,28,03,06,13.30
2017,05,28,03,07,13.30
2017,05,28,03,08,13.30
2017,05,28,03,09,13.20
2017,05,28,03,10,13.20
2017,05,28,03,11,13.20
2017,05,28,03,12,13.20
2017,05,28,03,13,13.20
2017,05,28,03,14,13.20
2017,05,28,03,15,13.20
2017,05,28,03,16,13.20
2017,05,28,03,17,13.20
2017,05,28,03,18,13.10
2017,05,28,03,19,13.10
2017,05,28,03,20,13.10
2017,05,28,03,21,13.10
2017,05,28,03,22,13.10
2017,05,28,03,23,13.10
2017,05,28,03,24,13.10
2017,05,28,03,25,13.10
2017,05,28,03,26,13.00
2017,05,28,03,27,13.00
2017,05,28,03,28,13.00
2017,05,28,03,29,13.00
2017,05,28,03,30,12.90
2017,05,28,03,31,12.90
2017,05,28,03,32,12.90
2017,05,28,03,33,12.90
2017,05,28,03,34,12.90
2017,05,28,03,35,12.90
2017,05,28,03,36,12.90
2017,05,28,03,37,12.90
2017,05,28,03,38,12.90
2017,05,28,03,39,12.90
2017,05,28,03,40,12.90
2017,05,28,03,41,12.90
2017,05,28,03,42,12.80
2017,05,28,03,43,12.80
2017,05,28,03,44,12.80
2017,05,28,03,45,12.80
2017,05,28,03,46,12.80
2017,05,28,03,47,12.80
2017,05,28,03,48,12.80
2017,05,28,03,49,12.80
2017,05,28,03,50,12.80
2017,05,28,03,51,12.80
2017,05,28,03,52,12.90
2017,05,28,03,53,12.90
2017,05,28,03,54,12.90
2017,05,28,03,55,12.90
2017,05,28,03,56,12.90
2017,05,28,03,57,12.90
2017,05,28,03,58,12.90
2017,05,28,03,59,12.90
2017,05,28,04,00,12.90
2017,05,28,04,01,12.90
2017,05,28,04,02,12.80
2017,05,28,04,03,12.80
2017,05,28,04,04,12.80
2017,05,28,04,05,12.80
2017,05,28,04,06,12.80
2017,05,28,04,07,12.70
2017,05,28,04,08,12.70
2017,05,28,04,09,12.70
2017,05,28,04,10,12.70
2017,05,28,04,11,12.70
2017,05,28,04,12,12.70
2017,05,28,04,13,12.70
2017,05,28,04,14,12.70
2017,05,28,04,15,12.70
2017,05,28,04,16,12.70
2017,05,28,04,17,12.70
2017,05,28,04,18,12.70
2017,05,28,04,19,12.70
2017,05,28,04,20,12.70
2017,05,28,04,21,12.70
2017,05,28,04,22,12.70
2017,05,28,04,23,12.70
2017,05,28,04,24,12.70
2017,05,28,04,25,12.70
2017,05,28,04,26,12.70
2017,05,28,04,27,12.70
2017,05,28,04,28,12.70
2017,05,28,04,29,12.70
2017,05,28,04,30,12.70
2017,05,28,04,31,12.70
2017,05,28,04,32,12.70
2017,05,28,04,33,12.70
2017,05,28,04,34,12.70
2017,05,28,04,35,12.70
2017,05,28,04,36,12.70
2017,05,28,04,37,12.60
2017,05,28,04,38,12.60
2017,05,28,04,39,12.60
2017,05,28,04,40,12.60
2017,05,28,04,41,12.60
2017,05,28,04,42,12.60
2017,05,28,04,43,12.50
2017,05,28,04,44,12.50
2017,05,28,04,45,12.50
2017,05,28,04,46,12.40
2017,05,28,04,47,12.40
2017,05,28,04,48,12.40
2017,05,28,04,49,12.40
2017,05,28,04,50,12.40
2017,05,28,04,51,12.40
2017,05,28,04,52,12.40
2017,05,28,04,53,12.40
2017,05,28,04,54,12.40
2017,05,28,04,55,12.40
2017,05,28,04,56,12.40
2017,05,28,04,57,12.40
2017,05,28,04,58,12.40
2017,05,28,04,59,12.40
2017,05,28,05,00,12.40
2017,05,28,05,01,12.40
2017,05,28,05,02,12.40
2017,05,28,05,03,12.40
2017,05,28,05,04,12.40
2017,05,28,05,05,12.40
2017,05,28,05,06,12.40
2017,05,28,05,07,12.40
2017,05,28,05,08,12.30
2017,05,28,05,09,12.30
2017,05,28,05,10,12.30
2017,05,28,05,11,12.30
2017,05,28,05,12,12.30
2017,05,28,05,13,12.30
2017,05,28,05,14,12.30
2017,05,28,05,15,12.30
2017,05,28,05,16,12.30
2017,05,28,05,17,12.30
2017,05,28,05,18,12.30
2017,05,28,05,19,12.30
2017,05,28,05,20,12.30
2017,05,28,05,21,12.30
2017,05,28,05,22,12.30
2017,05,28,05,23,12.20
2017,05,28,05,24,12.20
2017,05,28,05,25,12.20
2017,05,28,05,26,12.20
2017,05,28,05,27,12.20
2017,05,28,05,28,12.20
2017,05,28,05,29,12.20
2017,05,28,05,30,12.20
2017,05,28,05,31,12.20
2017,05,28,05,32,12.20
2017,05,28,05,33,12.20
2017,05,28,05,34,12.20
2017,05,28,05,35,12.20
2017,05,28,05,36,12.20
2017,05,28,05,37,12.20
2017,05,28,05,38,12.20
2017,05,28,05,39,12.20
2017,05,28,05,40,12.20
2017,05,28,05,41,12.20
2017,05,28,05,42,12.20
2017,05,28,05,43,12.20
2017,05,28,05,44,12.20
2017,05,28,05,45,12.20
2017,05,28,05,46,12.10
2017,05,28,05,47,12.20
2017,05,28,05,48,12.20
2017,05,28,05,49,12.20
2017,05,28,05,50,12.20
2017,05,28,05,51,12.20
2017,05,28,05,52,12.30
2017,05,28,05,53,12.30
2017,05,28,05,54,12.30
2017,05,28,05,55,12.30
2017,05,28,05,56,12.30
2017,05,28,05,57,12.30
2017,05,28,05,58,12.40
2017,05,28,05,59,12.40
2017,05,28,06,00,12.40
2017,05,28,06,01,12.40
2017,05,28,06,02,12.40
2017,05,28,06,03,12.40
2017,05,28,06,04,12.40
2017,05,28,06,05,12.40
2017,05,28,06,06,12.40
2017,05,28,06,07,12.40
2017,05,28,06,08,12.40
2017,05,28,06,09,12.40
2017,05,28,06,10,12.40
2017,05,28,06,11,12.40
2017,05,28,06,12,12.40
2017,05,28,06,13,12.40
2017,05,28,06,14,12.40
2017,05,28,06,15,12.40
2017,05,28,06,16,12.50
2017,05,28,06,17,12.50
2017,05,28,06,18,12.50
2017,05,28,06,19,12.60
2017,05,28,06,20,12.60
2017,05,28,06,21,12.60
2017,05,28,06,22,12.60
2017,05,28,06,23,12.70
2017,05,28,06,24,12.70
2017,05,28,06,25,12.70
2017,05,28,06,26,12.80
2017,05,28,06,27,12.80
2017,05,28,06,28,12.80
2017,05,28,06,29,12.90
2017,05,28,06,30,12.90
2017,05,28,06,31,12.90
2017,05,28,06,32,13.00
2017,05,28,06,33,13.00
2017,05,28,06,34,13.10
2017,05,28,06,35,13.10
2017,05,28,06,36,13.20
2017,05,28,06,37,13.20
2017,05,28,06,38,13.30
2017,05,28,06,39,13.30
2017,05,28,06,40,13.30
2017,05,28,06,41,13.40
2017,05,28,06,42,13.50
2017,05,28,06,43,13.50
2017,05,28,06,44,13.60
2017,05,28,06,45,13.70
2017,05,28,06,46,13.80
2017,05,28,06,47,13.80
2017,05,28,06,48,13.90
2017,05,28,06,49,13.90
2017,05,28,06,50,13.90
2017,05,28,06,51,14.00
2017,05,28,06,52,14.00
2017,05,28,06,53,14.10
2017,05,28,06,54,14.10
2017,05,28,06,55,14.20
2017,05,28,06,56,14.20
2017,05,28,06,57,14.30
2017,05,28,06,58,14.30
2017,05,28,06,59,14.40
2017,05,28,07,00,14.40
2017,05,28,07,01,14.50
2017,05,28,07,02,14.60
2017,05,28,07,03,14.80
2017,05,28,07,04,15.00
2017,05,28,07,05,15.00
2017,05,28,07,06,15.10
2017,05,28,07,07,15.30
2017,05,28,07,08,15.40
2017,05,28,07,09,15.50
2017,05,28,07,10,15.60
2017,05,28,07,11,15.70
2017,05,28,07,12,15.80
2017,05,28,07,13,15.90
2017,05,28,07,14,15.90
2017,05,28,07,15,16.00
2017,05,28,07,16,16.00
2017,05,28,07,17,16.10
2017,05,28,07,18,16.10
2017,05,28,07,19,16.10
2017,05,28,07,20,16.20
2017,05,28,07,21,16.20
2017,05,28,07,22,16.30
2017,05,28,07,23,16.30
2017,05,28,07,24,16.40
2017,05,28,07,25,16.50
2017,05,28,07,26,16.50
2017,05,28,07,27,16.60
2017,05,28,07,28,16.60
2017,05,28,07,29,16.60
2017,05,28,07,30,16.70
2017,05,28,07,31,16.70
2017,05,28,07,32,16.80
2017,05,28,07,33,16.80
2017,05,28,07,34,16.90
2017,05,28,07,35,17.00
2017,05,28,07,36,17.10
2017,05,28,07,37,17.10
2017,05,28,07,38,17.10
2017,05,28,07,39,17.10
2017,05,28,07,40,17.20
2017,05,28,07,41,17.20
2017,05,28,07,42,17.30
2017,05,28,07,43,17.40
2017,05,28,07,44,17.50
2017,05,28,07,45,17.70
2017,05,28,07,46,17.80
2017,05,28,07,47,18.00
2017,05,28,07,48,18.10
2017,05,28,07,49,18.30
2017,05,28,07,50,18.50
2017,05,28,07,51,18.50
2017,05,28,07,52,18.60
2017,05,28,07,53,18.80
2017,05,28,07,54,18.90
2017,05,28,07,55,19.10
2017,05,28,07,56,19.20
2017,05,28,07,57,19.30
2017,05,28,07,58,19.40
2017,05,28,07,59,19.50
2017,05,28,08,00,19.60
2017,05,28,08,01,19.70
2017,05,28,08,02,19.70
2017,05,28,08,03,19.80
2017,05,28,08,04,19.90
2017,05,28,08,05,20.00
2017,05,28,08,06,20.00
2017,05,28,08,07,20.00
2017,05,28,08,08,20.00
2017,05,28,08,09,19.90
2017,05,28,08,10,19.90
2017,05,28,08,11,19.90
2017,05,28,08,12,19.80
2017,05,28,08,13,19.80
2017,05,28,08,14,19.80
2017,05,28,08,15,19.80
2017,05,28,08,16,19.90
2017,05,28,08,17,19.90
2017,05,28,08,18,20.00
2017,05,28,08,19,20.20
2017,05,28,08,20,20.30
2017,05,28,08,21,20.40
2017,05,28,08,22,20.60
2017,05,28,08,23,20.70
2017,05,28,08,24,20.70
2017,05,28,08,25,20.80
2017,05,28,08,26,20.90
2017,05,28,08,27,20.90
2017,05,28,08,28,20.80
2017,05,28,08,29,20.80
2017,05,28,08,30,20.80
2017,05,28,08,31,20.90
2017,05,28,08,32,21.00
2017,05,28,08,33,21.00
2017,05,28,08,34,21.10
2017,05,28,08,35,21.20
2017,05,28,08,36,21.30
2017,05,28,08,37,21.40
2017,05,28,08,38,21.50
2017,05,28,08,39,21.60
2017,05,28,08,40,21.70
2017,05,28,08,41,21.70
2017,05,28,08,42,21.80
2017,05,28,08,43,21.90
2017,05,28,08,44,22.10
2017,05,28,08,45,22.20
2017,05,28,08,46,22.30
2017,05,28,08,47,22.30
2017,05,28,08,48,22.40
2017,05,28,08,49,22.40
2017,05,28,08,50,22.50
2017,05,28,08,51,22.60
2017,05,28,08,52,22.70
2017,05,28,08,53,22.80
2017,05,28,08,54,22.90
2017,05,28,08,55,22.90
2017,05,28,08,56,22.90
2017,05,28,08,57,23.00
2017,05,28,08,58,23.00
2017,05,28,08,59,22.90
2017,05,28,09,00,22.80
2017,05,28,09,01,22.80
2017,05,28,09,02,22.80
2017,05,28,09,03,22.60
2017,05,28,09,04,22.50
2017,05,28,09,05,22.40
2017,05,28,09,06,22.40
2017,05,28,09,07,22.40
2017,05,28,09,08,22.40
2017,05,28,09,09,22.50
2017,05,28,09,10,22.60
2017,05,28,09,11,22.60
2017,05,28,09,12,22.60
2017,05,28,09,13,22.60
2017,05,28,09,14,22.60
2017,05,28,09,15,22.70
2017,05,28,09,16,22.80
2017,05,28,09,17,22.80
2017,05,28,09,18,22.80
2017,05,28,09,19,22.70
2017,05,28,09,20,22.70
2017,05,28,09,21,22.70
2017,05,28,09,22,22.70
2017,05,28,09,23,22.70
2017,05,28,09,24,22.70
2017,05,28,09,25,22.70
2017,05,28,09,26,22.60
2017,05,28,09,27,22.50
2017,05,28,09,28,22.40
2017,05,28,09,29,22.30
2017,05,28,09,30,22.20
2017,05,28,09,31,22.20
2017,05,28,09,32,22.20
2017,05,28,09,33,22.20
2017,05,28,09,34,22.20
2017,05,28,09,35,22.20
2017,05,28,09,36,22.20
2017,05,28,09,37,22.20
2017,05,28,09,38,22.20
2017,05,28,09,39,22.10
2017,05,28,09,40,22.10
2017,05,28,09,41,22.10
2017,05,28,09,42,22.10
2017,05,28,09,43,22.20
2017,05,28,09,44,22.20
2017,05,28,09,45,22.20
2017,05,28,09,46,22.10
2017,05,28,09,47,22.10
2017,05,28,09,48,22.10
2017,05,28,09,49,22.10
2017,05,28,09,50,22.10
2017,05,28,09,51,22.10
2017,05,28,09,52,22.20
2017,05,28,09,53,22.30
2017,05,28,09,54,22.30
2017,05,28,09,55,22.40
2017,05,28,09,56,22.40
2017,05,28,09,57,22.40
2017,05,28,09,58,22.40
2017,05,28,09,59,22.50
2017,05,28,10,00,22.60
2017,05,28,10,01,22.70
2017,05,28,10,02,22.80
2017,05,28,10,03,22.80
2017,05,28,10,04,22.80
2017,05,28,10,05,22.70
2017,05,28,10,06,22.70
2017,05,28,10,07,22.70
2017,05,28,10,08,22.70
2017,05,28,10,09,22.70
2017,05,28,10,10,22.70
2017,05,28,10,11,22.80
2017,05,28,10,12,22.80
2017,05,28,10,13,22.90
2017,05,28,10,14,23.00
2017,05,28,10,15,23.00
2017,05,28,10,16,22.90
2017,05,28,10,17,22.90
2017,05,28,10,18,22.80
2017,05,28,10,19,22.60
2017,05,28,10,20,22.60
2017,05,28,10,21,22.60
2017,05,28,10,22,22.60
2017,05,28,10,23,22.60
2017,05,28,10,24,22.60
2017,05,28,10,25,22.70
2017,05,28,10,26,22.70
2017,05,28,10,27,22.70
2017,05,28,10,28,22.80
2017,05,28,10,29,22.90
2017,05,28,10,30,22.90
2017,05,28,10,31,23.00
2017,05,28,10,32,23.00
2017,05,28,10,33,23.10
2017,05,28,10,34,23.20
2017,05,28,10,35,23.20
2017,05,28,10,36,23.10
2017,05,28,10,37,23.00
2017,05,28,10,38,22.90
2017,05,28,10,39,22.90
2017,05,28,10,40,22.90
2017,05,28,10,41,22.90
2017,05,28,10,42,22.90
2017,05,28,10,43,22.80
2017,05,28,10,44,22.80
2017,05,28,10,45,22.80
2017,05,28,10,46,22.80
2017,05,28,10,47,22.80
2017,05,28,10,48,22.80
2017,05,28,10,49,22.90
2017,05,28,10,50,23.00
2017,05,28,10,51,23.10
2017,05,28,10,52,23.20
2017,05,28,10,53,23.30
2017,05,28,10,54,23.40
2017,05,28,10,55,23.40
2017,05,28,10,56,23.50
2017,05,28,10,57,23.50
2017,05,28,10,58,23.50
2017,05,28,10,59,23.40
2017,05,28,11,00,23.40
2017,05,28,11,01,23.30
2017,05,28,11,02,23.30
2017,05,28,11,03,23.40
2017,05,28,11,04,23.40
2017,05,28,11,05,23.40
2017,05,28,11,06,23.40
2017,05,28,11,07,23.30
2017,05,28,11,08,23.30
2017,05,28,11,09,23.30
2017,05,28,11,10,23.30
2017,05,28,11,11,23.40
2017,05,28,11,12,23.50
2017,05,28,11,13,23.60
2017,05,28,11,14,23.70
2017,05,28,11,15,23.70
2017,05,28,11,16,23.70
2017,05,28,11,17,23.70
2017,05,28,11,18,23.60
2017,05,28,11,19,23.50
2017,05,28,11,20,23.50
2017,05,28,11,21,23.50
2017,05,28,11,22,23.60
2017,05,28,11,23,23.60
2017,05,28,11,24,23.50
2017,05,28,11,25,23.40
2017,05,28,11,26,23.30
2017,05,28,11,27,23.20
2017,05,28,11,28,23.20
2017,05,28,11,29,23.30
2017,05,28,11,30,23.30
2017,05,28,11,31,23.40
2017,05,28,11,32,23.40
2017,05,28,11,33,23.50
2017,05,28,11,34,23.60
2017,05,28,11,35,23.70
2017,05,28,11,36,23.70
2017,05,28,11,37,23.60
2017,05,28,11,38,23.70
2017,05,28,11,39,23.60
2017,05,28,11,40,23.60
2017,05,28,11,41,23.60
2017,05,28,11,42,23.60
2017,05,28,11,43,23.60
2017,05,28,11,44,23.60
2017,05,28,11,45,23.60
2017,05,28,11,46,23.70
2017,05,28,11,47,23.80
2017,05,28,11,48,23.90
2017,05,28,11,49,24.00
2017,05,28,11,50,24.10
2017,05,28,11,51,24.20
2017,05,28,11,52,24.20
2017,05,28,11,53,24.30
2017,05,28,11,54,24.30
2017,05,28,11,55,24.30
2017,05,28,11,56,24.40
2017,05,28,11,57,24.50
2017,05,28,11,58,24.60
2017,05,28,11,59,24.70
2017,05,28,12,00,24.70
2017,05,28,12,01,24.80
2017,05,28,12,02,24.80
2017,05,28,12,03,24.80
2017,05,28,12,04,24.90
2017,05,28,12,05,24.80
2017,05,28,12,06,24.80
2017,05,28,12,07,24.90
2017,05,28,12,08,24.90
2017,05,28,12,09,25.00
2017,05,28,12,10,25.10
2017,05,28,12,11,25.20
2017,05,28,12,12,25.30
2017,05,28,12,13,25.40
2017,05,28,12,14,25.50
2017,05,28,12,15,25.50
2017,05,28,12,16,25.50
2017,05,28,12,17,25.60
2017,05,28,12,18,25.50
2017,05,28,12,19,25.40
2017,05,28,12,20,25.30
2017,05,28,12,21,25.20
2017,05,28,12,22,25.20
2017,05,28,12,23,25.20
2017,05,28,12,24,25.20
2017,05,28,12,25,25.20
2017,05,28,12,26,25.00
2017,05,28,12,27,24.90
2017,05,28,12,28,24.90
2017,05,28,12,29,24.90
2017,05,28,12,30,24.90
2017,05,28,12,31,24.90
2017,05,28,12,32,24.90
2017,05,28,12,33,24.80
2017,05,28,12,34,24.80
2017,05,28,12,35,24.70
2017,05,28,12,36,24.70
2017,05,28,12,37,24.70
2017,05,28,12,38,24.70
2017,05,28,12,39,24.80
2017,05,28,12,40,24.80
2017,05,28,12,41,24.80
2017,05,28,12,42,24.80
2017,05,28,12,43,24.80
2017,05,28,12,44,24.80
2017,05,28,12,45,24.90
2017,05,28,12,46,25.00
2017,05,28,12,47,25.10
2017,05,28,12,48,25.00
2017,05,28,12,49,24.90
2017,05,28,12,50,24.80
2017,05,28,12,51,24.90
2017,05,28,12,52,24.90
2017,05,28,12,53,24.90
2017,05,28,12,54,24.90
2017,05,28,12,55,24.80
2017,05,28,12,56,24.70
2017,05,28,12,57,24.60
2017,05,28,12,58,24.50
2017,05,28,12,59,24.40
2017,05,28,13,00,24.40
2017,05,28,13,01,24.30
2017,05,28,13,02,24.20
2017,05,28,13,03,24.20
2017,05,28,13,04,24.30
2017,05,28,13,05,24.40
2017,05,28,13,06,24.40
2017,05,28,13,07,24.50
2017,05,28,13,08,24.60
2017,05,28,13,09,24.70
2017,05,28,13,10,24.80
2017,05,28,13,11,24.90
2017,05,28,13,12,24.90
2017,05,28,13,13,24.80
2017,05,28,13,14,24.70
2017,05,28,13,15,24.70
2017,05,28,13,16,24.70
2017,05,28,13,17,24.70
2017,05,28,13,18,24.80
2017,05,28,13,19,24.90
2017,05,28,13,20,25.00
2017,05,28,13,21,25.00
2017,05,28,13,22,25.10
2017,05,28,13,23,25.10
2017,05,28,13,24,24.90
2017,05,28,13,25,24.70
2017,05,28,13,26,24.60
2017,05,28,13,27,24.60
2017,05,28,13,28,24.60
2017,05,28,13,29,24.60
2017,05,28,13,30,24.60
2017,05,28,13,31,24.60
2017,05,28,13,32,24.70
2017,05,28,13,33,24.70
2017,05,28,13,34,24.80
2017,05,28,13,35,24.80
2017,05,28,13,36,24.80
2017,05,28,13,37,24.80
2017,05,28,13,38,24.80
2017,05,28,13,39,24.80
2017,05,28,13,40,24.90
2017,05,28,13,41,24.90
2017,05,28,13,42,24.90
2017,05,28,13,43,24.90
2017,05,28,13,44,25.00
2017,05,28,13,45,25.00
2017,05,28,13,46,25.00
2017,05,28,13,47,25.00
2017,05,28,13,48,24.90
2017,05,28,13,49,24.80
2017,05,28,13,50,24.70
2017,05,28,13,51,24.70
2017,05,28,13,52,24.80
2017,05,28,13,53,24.80
2017,05,28,13,54,24.80
2017,05,28,13,55,24.80
2017,05,28,13,56,24.80
2017,05,28,13,57,24.80
2017,05,28,13,58,24.90
2017,05,28,13,59,24.90
2017,05,28,14,00,25.00
2017,05,28,14,01,25.00
2017,05,28,14,02,25.10
2017,05,28,14,03,25.10
2017,05,28,14,04,25.10
2017,05,28,14,05,25.10
2017,05,28,14,06,25.10
2017,05,28,14,07,25.00
2017,05,28,14,08,24.80
2017,05,28,14,09,24.70
2017,05,28,14,10,24.60
2017,05,28,14,11,24.60
2017,05,28,14,12,24.60
2017,05,28,14,13,24.50
2017,05,28,14,14,24.50
2017,05,28,14,15,24.60
2017,05,28,14,16,24.70
2017,05,28,14,17,24.70
2017,05,28,14,18,24.60
2017,05,28,14,19,24.70
2017,05,28,14,20,24.80
2017,05,28,14,21,24.90
2017,05,28,14,22,25.00
2017,05,28,14,23,25.10
2017,05,28,14,24,25.10
2017,05,28,14,25,25.10
2017,05,28,14,26,25.10
2017,05,28,14,27,25.10
2017,05,28,14,28,25.10
2017,05,28,14,29,25.20
2017,05,28,14,30,25.20
2017,05,28,14,31,25.20
2017,05,28,14,32,25.20
2017,05,28,14,33,25.20
2017,05,28,14,34,25.20
2017,05,28,14,35,25.20
2017,05,28,14,36,25.20
2017,05,28,14,37,25.20
2017,05,28,14,38,25.30
2017,05,28,14,39,25.20
2017,05,28,14,40,25.30
2017,05,28,14,41,25.30
2017,05,28,14,42,25.30
2017,05,28,14,43,25.40
2017,05,28,14,44,25.30
2017,05,28,14,45,25.30
2017,05,28,14,46,25.30
2017,05,28,14,47,25.40
2017,05,28,14,48,25.50
2017,05,28,14,49,25.50
2017,05,28,14,50,25.60
2017,05,28,14,51,25.50
2017,05,28,14,52,25.40
2017,05,28,14,53,25.40
2017,05,28,14,54,25.40
2017,05,28,14,55,25.40
2017,05,28,14,56,25.30
2017,05,28,14,57,25.20
2017,05,28,14,58,25.20
2017,05,28,14,59,25.20
2017,05,28,15,00,25.20
2017,05,28,15,01,25.20
2017,05,28,15,02,25.20
2017,05,28,15,03,25.20
2017,05,28,15,04,25.20
2017,05,28,15,05,25.30
2017,05,28,15,06,25.30
2017,05,28,15,07,25.20
2017,05,28,15,08,25.20
2017,05,28,15,09,25.20
2017,05,28,15,10,25.20
2017,05,28,15,11,25.20
2017,05,28,15,12,25.20
2017,05,28,15,13,25.20
2017,05,28,15,14,25.20
2017,05,28,15,15,25.20
2017,05,28,15,16,25.30
2017,05,28,15,17,25.40
2017,05,28,15,18,25.40
2017,05,28,15,19,25.40
2017,05,28,15,20,25.40
2017,05,28,15,21,25.40
2017,05,28,15,22,25.30
2017,05,28,15,23,25.30
2017,05,28,15,24,25.30
2017,05,28,15,25,25.30
2017,05,28,15,26,25.20
2017,05,28,15,27,25.20
2017,05,28,15,28,25.10
2017,05,28,15,29,25.10
2017,05,28,15,30,25.10
2017,05,28,15,31,25.10
2017,05,28,15,32,25.10
2017,05,28,15,33,25.10
2017,05,28,15,34,25.10
2017,05,28,15,35,25.10
2017,05,28,15,36,25.10
2017,05,28,15,37,25.10
2017,05,28,15,38,25.10
2017,05,28,15,39,25.10
2017,05,28,15,40,25.10
2017,05,28,15,41,25.10
2017,05,28,15,42,25.20
2017,05,28,15,43,25.30
2017,05,28,15,44,25.40
2017,05,28,15,45,25.40
2017,05,28,15,46,25.60
2017,05,28,15,47,25.70
2017,05,28,15,48,25.60
2017,05,28,15,49,25.60
2017,05,28,15,50,25.50
2017,05,28,15,51,25.40
2017,05,28,15,52,25.40
2017,05,28,15,53,25.40
2017,05,28,15,54,25.40
2017,05,28,15,55,25.40
2017,05,28,15,56,25.40
2017,05,28,15,57,25.40
2017,05,28,15,58,25.40
2017,05,28,15,59,25.30
2017,05,28,16,00,25.30
2017,05,28,16,01,25.30
2017,05,28,16,02,25.20
2017,05,28,16,03,25.10
2017,05,28,16,04,24.90
2017,05,28,16,05,24.80
2017,05,28,16,06,24.70
2017,05,28,16,07,24.60
2017,05,28,16,08,24.70
2017,05,28,16,09,24.80
2017,05,28,16,10,24.80
2017,05,28,16,11,24.90
2017,05,28,16,12,24.90
2017,05,28,16,13,25.00
2017,05,28,16,14,25.00
2017,05,28,16,15,25.10
2017,05,28,16,16,25.10
2017,05,28,16,17,25.00
2017,05,28,16,18,25.00
2017,05,28,16,19,24.90
2017,05,28,16,20,24.80
2017,05,28,16,21,24.80
2017,05,28,16,22,24.80
2017,05,28,16,23,24.80
2017,05,28,16,24,24.90
2017,05,28,16,25,24.90
2017,05,28,16,26,25.00
2017,05,28,16,27,25.10
2017,05,28,16,28,25.10
2017,05,28,16,29,25.10
2017,05,28,16,30,25.20
2017,05,28,16,31,25.20
2017,05,28,16,32,25.20
2017,05,28,16,33,25.30
2017,05,28,16,34,25.30
2017,05,28,16,35,25.30
2017,05,28,16,36,25.30
2017,05,28,16,37,25.30
2017,05,28,16,38,25.30
2017,05,28,16,39,25.40
2017,05,28,16,40,25.40
2017,05,28,16,41,25.50
2017,05,28,16,42,25.50
2017,05,28,16,43,25.50
2017,05,28,16,44,25.50
2017,05,28,16,45,25.50
2017,05,28,16,46,25.60
2017,05,28,16,47,25.60
2017,05,28,16,48,25.60
2017,05,28,16,49,25.60
2017,05,28,16,50,25.60
2017,05,28,16,51,25.70
2017,05,28,16,52,25.70
2017,05,28,16,53,25.70
2017,05,28,16,54,25.70
2017,05,28,16,55,25.70
2017,05,28,16,56,25.70
2017,05,28,16,57,25.70
2017,05,28,16,58,25.70
2017,05,28,16,59,25.80
2017,05,28,17,00,25.80
2017,05,28,17,01,25.80
2017,05,28,17,02,25.80
2017,05,28,17,03,25.80
2017,05,28,17,04,25.80
2017,05,28,17,05,25.80
2017,05,28,17,06,25.80
2017,05,28,17,07,25.80
2017,05,28,17,08,25.80
2017,05,28,17,09,25.80
2017,05,28,17,10,25.80
2017,05,28,17,11,25.80
2017,05,28,17,12,25.80
2017,05,28,17,13,25.80
2017,05,28,17,14,25.90
2017,05,28,17,15,25.90
2017,05,28,17,16,25.90
2017,05,28,17,17,25.90
2017,05,28,17,18,25.90
2017,05,28,17,19,25.90